GW4801 Weather Reports


time (UTC)temp
C
wind
direction
speed
KPH
gust
KPH
rain 1hr
cm
rain 24hr
cm
rain mn
cm
humidity
%
barometer
mb
20260505153338 25 173 9.7 19.3 0.00 0.00 0.00 71 1012.7
20260505152838 25 207 9.7 20.9 0.00 0.00 0.00 71 1012.8
20260505152338 25 158 11.3 20.9 0.00 0.00 0.00 71 1012.8
20260505152319 24 166 9.7 19.3 0.00 0.00 0.00 74 1012.8
20260505151338 24 323 11.3 19.3 0.00 0.00 0.00 74 1012.8
20260505150838 24 197 9.7 20.9 0.00 0.00 0.00 74 1012.6
20260505150339 25 190 8.0 20.9 0.00 0.00 0.00 72 1012.7
20260505150317 24 204 8.0 20.9 0.00 0.00 0.00 72 1012.8
20260505140337 23 194 8.0 20.9 0.00 0.00 0.00 78 1012.7
20260505124835 21 153 6.4 12.9 0.00 0.00 0.00 85 1012.4
20260505124334 21 173 6.4 12.9 0.00 0.00 0.00 85 1012.2
20260505123834 20 156 6.4 12.9 0.00 0.00 0.00 86 1012.1
20260505123558 20 171 4.8 12.9 0.00 0.00 0.00 86 1012.1
20260505123108 20 184 4.8 9.7 0.00 0.00 0.00 87 1012.0
20260505122332 20 171 4.8 9.7 0.00 0.00 0.00 88 1012.0
20260505121832 19 186 4.8 9.7 0.00 0.00 0.00 88 1011.9
20260505121332 19 188 3.2 8.0 0.00 0.00 0.00 89 1012.0
20260505120832 19 166 4.8 9.7 0.00 0.00 0.00 90 1011.8
20260505120332 18 206 4.8 9.7 0.00 0.00 0.00 90 1011.8
20260505115832 18 182 3.2 6.4 0.00 0.00 0.00 91 1011.8
20260505115332 18 198 3.2 8.0 0.00 0.00 0.00 91 1011.8
20260505114832 18 178 3.2 8.0 0.00 0.00 0.00 92 1011.8
20260505114604 18 172 3.2 6.4 0.00 0.00 0.00 92 1011.8
20260505113831 18 137 1.6 4.8 0.00 0.00 0.00 92 1011.9
20260505113331 18 165 1.6 3.2 0.00 0.00 0.00 92 1011.9
20260505112830 18 228 1.6 4.8 0.00 0.00 0.00 92 1011.9
20260505112331 18 199 1.6 4.8 0.00 0.00 0.00 92 1011.9
20260505111831 18 0 1.6 4.8 0.00 0.00 0.00 93 1011.8
20260505111333 17 151 1.6 4.8 0.00 0.00 0.00 93 1011.7
20260505110831 17 167 0.0 3.2 0.00 0.00 0.00 93 1011.8
20260505110332 17 0 0.0 3.2 0.00 0.00 0.00 93 1011.9
20260505101832 17 0 0.0 3.2 0.00 0.00 0.00 93 1012.0
20260505101332 17 0 0.0 1.6 0.00 0.00 0.00 92 1012.0
20260505100831 17 0 0.0 1.6 0.00 0.00 0.00 92 1012.0
20260505100331 17 91 0.0 1.6 0.00 0.00 0.00 92 1012.0
20260505095831 17 36 0.0 3.2 0.00 0.00 0.00 91 1012.1
20260505095331 17 18 0.0 3.2 0.00 0.00 0.00 91 1012.1
20260505095102 17 0 0.0 1.6 0.00 0.00 0.00 90 1012.0
20260505094331 17 75 0.0 1.6 0.00 0.00 0.00 90 1012.0
20260505093831 17 0 0.0 3.2 0.00 0.00 0.00 90 1012.0
20260505093332 17 0 0.0 3.2 0.00 0.00 0.00 90 1011.9
20260505092831 17 263 0.0 3.2 0.00 0.00 0.00 89 1011.9
20260505092331 17 0 0.0 1.6 0.00 0.00 0.00 89 1011.8
20260505091831 17 0 0.0 1.6 0.00 0.00 0.00 88 1011.8
20260505091330 17 0 0.0 1.6 0.00 0.00 0.00 88 1011.8
20260505090831 17 178 0.0 3.2 0.00 0.00 0.00 88 1011.9
20260505090331 17 0 0.0 3.2 0.00 0.00 0.00 88 1011.9
20260505085831 17 0 0.0 3.2 0.00 0.00 0.00 88 1011.9
20260505085331 17 146 1.6 3.2 0.00 0.00 0.00 88 1011.8
20260505084831 17 111 0.0 3.2 0.00 0.00 0.00 88 1011.8
20260505084551 17 0 0.0 3.2 0.00 0.00 0.00 87 1011.8
20260505083831 17 0 0.0 3.2 0.00 0.00 0.00 87 1011.9
20260505083331 17 0 0.0 1.6 0.00 0.00 0.00 87 1011.9
20260505082832 17 64 0.0 1.6 0.00 0.00 0.00 86 1011.9
20260505082331 17 96 0.0 1.6 0.00 0.00 0.00 86 1011.8
20260505081831 17 96 0.0 3.2 0.00 0.00 0.00 86 1011.9
20260505081550 17 0 0.0 3.2 0.00 0.00 0.00 86 1011.9
20260505080832 17 69 0.0 3.2 0.00 0.00 0.00 86 1011.9
20260505080332 17 98 1.6 3.2 0.00 0.00 0.00 86 1011.8
20260505075832 17 0 0.0 3.2 0.00 0.00 0.00 87 1011.9
20260505075331 17 76 0.0 1.6 0.00 0.00 0.00 88 1011.9
20260505075316 16 0 0.0 1.6 0.00 0.00 0.00 87 1011.9
20260505074332 16 0 0.0 1.6 0.00 0.00 0.00 87 1012.0
20260505073832 16 0 0.0 1.6 0.00 0.00 0.00 87 1012.1
20260505073331 17 0 0.0 1.6 0.00 0.00 0.00 86 1012.1
20260505073051 17 0 0.0 1.6 0.00 0.00 0.00 85 1012.1
20260505072331 17 0 0.0 3.2 0.00 0.00 0.00 85 1012.1
20260505071831 17 0 0.0 3.2 0.00 0.00 0.00 85 1012.1
20260505071331 17 87 0.0 3.2 0.00 0.00 0.00 86 1012.2
20260505070830 16 0 0.0 0.0 0.00 0.00 0.00 86 1012.2
20260505070331 16 0 0.0 1.6 0.00 0.00 0.00 86 1012.3
20260505065831 16 0 0.0 1.6 0.00 0.00 0.00 86 1012.4
20260505065331 16 300 0.0 1.6 0.00 0.00 0.00 85 1012.5
20260505064831 17 0 0.0 1.6 0.00 0.00 0.00 85 1012.7
20260505064551 17 11 0.0 1.6 0.00 0.00 0.00 84 1012.7
20260505063831 17 0 0.0 1.6 0.00 0.00 0.00 83 1012.8
20260505063331 17 0 0.0 3.2 0.00 0.00 0.00 83 1012.9
20260505062831 17 82 1.6 3.2 0.00 0.00 0.00 83 1013.0
20260505062552 17 289 0.0 3.2 0.00 0.00 0.00 83 1013.0
20260505061831 17 0 0.0 3.2 0.00 0.00 0.00 82 1012.9
20260505061331 17 22 0.0 3.2 0.00 0.00 0.00 82 1013.0
20260505060831 17 274 0.0 1.6 0.00 0.00 0.00 80 1013.0
20260505060331 18 0 0.0 1.6 0.00 0.00 0.00 80 1013.0
20260505060055 18 0 0.0 1.6 0.00 0.00 0.00 80 1013.0
20260505055332 18 0 0.0 1.6 0.00 0.00 0.00 79 1013.0
20260505054832 18 0 0.0 1.6 0.00 0.00 0.00 78 1013.0
20260505054331 18 0 0.0 3.2 0.00 0.00 0.00 77 1013.1
20260505053831 18 259 0.0 3.2 0.00 0.00 0.00 76 1013.1
20260505053329 18 151 0.0 3.2 0.00 0.00 0.00 76 1013.1
20260505052828 18 0 0.0 3.2 0.00 0.00 0.00 75 1013.0
20260505052328 18 0 0.0 3.2 0.00 0.00 0.00 75 1012.9
20260505052050 19 0 3.2 6.4 0.00 0.00 0.00 75 1012.8
20260505051330 19 167 3.2 6.4 0.00 0.00 0.00 74 1012.8
20260505051050 19 186 3.2 6.4 0.00 0.00 0.00 74 1012.8
20260505050329 19 150 3.2 6.4 0.00 0.00 0.00 74 1012.8
20260505041327 19 167 1.6 6.4 0.00 0.00 0.00 71 1013.5
20260505041049 19 175 3.2 6.4 0.00 0.00 0.00 70 1013.4
20260505040548 19 175 3.2 4.8 0.00 0.00 0.00 70 1013.5
20260505035827 20 188 3.2 6.4 0.00 0.00 0.00 70 1013.6
20260505035328 20 143 3.2 6.4 0.00 0.00 0.00 69 1013.6
20260505034827 20 176 4.8 9.7 0.00 0.00 0.00 69 1013.6
20260505034328 20 173 3.2 9.7 0.00 0.00 0.00 68 1013.5
20260505033828 20 183 4.8 11.3 0.00 0.00 0.00 68 1013.5
20260505033324 20 135 4.8 11.3 0.00 0.00 0.00 68 1013.5
20260505032825 20 174 4.8 9.7 0.00 0.00 0.00 68 1013.4
20260505032322 20 185 4.8 9.7 0.00 0.00 0.00 68 1013.2
20260505031821 20 216 4.8 12.9 0.00 0.00 0.00 67 1013.2
20260505031539 20 186 4.8 12.9 0.00 0.00 0.00 67 1013.3
20260505030822 20 186 4.8 11.3 0.00 0.00 0.00 67 1013.4
20260505030322 20 156 4.8 9.7 0.00 0.00 0.00 67 1013.5
20260505030212 20 203 6.4 11.3 0.00 0.00 0.00 66 1013.4
20260505030207 20 169 4.8 9.7 0.00 0.00 0.00 67 1013.4
20260505030203 20 178 6.4 11.3 0.00 0.00 0.00 66 1013.4
20260505025945 20 192 4.8 9.7 0.00 0.00 0.00 67 1013.4
20260505025720 20 174 4.8 9.7 0.00 0.00 0.00 67 1013.4
20260505023822 20 203 6.4 11.3 0.00 0.00 0.00 66 1013.4
20260505023323 20 198 4.8 12.9 0.00 0.00 0.00 66 1013.3
20260505022823 20 160 4.8 12.9 0.00 0.00 0.00 66 1013.3
20260505022319 20 152 6.4 14.5 0.00 0.00 0.00 65 1013.2
20260505021820 20 166 6.4 14.5 0.00 0.00 0.00 65 1013.2
20260505021320 20 199 6.4 11.3 0.00 0.00 0.00 65 1013.3
20260505020817 20 183 6.4 11.3 0.00 0.00 0.00 65 1013.4
20260505020316 20 169 6.4 11.3 0.00 0.00 0.00 65 1013.3
20260505015817 20 169 4.8 11.3 0.00 0.00 0.00 65 1013.3
20260505015317 20 190 4.8 9.7 0.00 0.00 0.00 65 1013.3
20260505014817 20 163 4.8 11.3 0.00 0.00 0.00 65 1013.1
20260505014317 20 208 4.8 11.3 0.00 0.00 0.00 65 1013.0
20260505013817 21 161 4.8 9.7 0.00 0.00 0.00 64 1013.0
20260505013315 21 168 4.8 9.7 0.00 0.00 0.00 64 1012.9
20260505012815 21 160 4.8 9.7 0.00 0.00 0.00 63 1013.0
20260505012315 21 185 4.8 9.7 0.00 0.00 0.00 62 1013.1
20260505012038 21 166 6.4 9.7 0.00 0.00 0.00 62 1013.0
20260505011315 21 180 4.8 9.7 0.00 0.00 0.00 61 1013.0
20260505010815 21 188 4.8 9.7 0.00 0.00 0.00 61 1012.9
20260505010314 21 149 6.4 9.7 0.00 0.00 0.00 60 1012.9
20260505005815 21 153 6.4 11.3 0.00 0.00 0.00 60 1013.0
20260505005312 21 155 6.4 11.3 0.00 0.00 0.00 59 1013.1
20260505005255 21 179 6.4 11.3 0.00 0.00 0.00 59 1013.3
20260505004309 21 176 6.4 12.9 0.00 0.00 0.00 58 1013.3
20260505003809 22 151 6.4 14.5 0.00 0.00 0.00 58 1013.2
20260505003309 22 190 8.0 14.5 0.00 0.00 0.00 57 1013.2
20260505002809 22 167 8.0 14.5 0.00 0.00 0.00 56 1013.3
20260505002309 22 148 8.0 14.5 0.00 0.00 0.00 55 1013.3
20260505001809 22 203 6.4 14.5 0.00 0.00 0.00 55 1013.3
20260505001528 22 176 8.0 16.1 0.00 0.00 0.00 55 1013.4
20260505000809 22 173 8.0 16.1 0.00 0.00 0.00 55 1013.3
20260505000309 22 199 8.0 14.5 0.00 0.00 0.00 55 1013.3
20260504235810 22 184 9.7 19.3 0.00 0.00 0.00 55 1013.3
20260504235532 22 172 9.7 19.3 0.00 0.00 0.00 54 1013.3
20260504234810 22 186 11.3 17.7 0.00 0.00 0.00 53 1013.3
20260504234527 22 161 11.3 19.3 0.00 0.00 0.00 53 1013.5
20260504233807 22 208 9.7 19.3 0.00 0.00 0.00 52 1013.5
20260504233306 22 144 9.7 19.3 0.00 0.00 0.00 52 1013.6
20260504232807 22 187 9.7 19.3 0.00 0.00 0.00 51 1013.6
20260504232307 22 183 9.7 19.3 0.00 0.00 0.00 50 1013.6
20260504231807 23 180 9.7 17.7 0.00 0.00 0.00 49 1013.6
20260504231307 23 187 11.3 20.9 0.00 0.00 0.00 49 1013.7
20260504231029 23 185 9.7 20.9 0.00 0.00 0.00 50 1013.8
20260504230751 23 170 9.7 19.3 0.00 0.00 0.00 49 1013.8
20260504225808 23 142 9.7 17.7 0.00 0.00 0.00 49 1013.8
20260504225308 23 185 9.7 17.7 0.00 0.00 0.00 49 1013.8
20260504224807 23 204 9.7 17.7 0.00 0.00 0.00 49 1013.8
20260504224307 23 167 9.7 17.7 0.00 0.00 0.00 48 1013.8
20260504224029 23 148 9.7 20.9 0.00 0.00 0.00 48 1013.9
20260504223307 23 159 9.7 20.9 0.00 0.00 0.00 48 1014.0
20260504222805 23 171 9.7 16.1 0.00 0.00 0.00 47 1013.9
20260504222305 23 165 9.7 19.3 0.00 0.00 0.00 47 1014.0
20260504222026 23 172 9.7 19.3 0.00 0.00 0.00 47 1014.0
20260504221305 23 204 9.7 17.7 0.00 0.00 0.00 46 1014.1
20260504220805 23 141 8.0 17.7 0.00 0.00 0.00 46 1014.2
20260504220305 23 180 8.0 17.7 0.00 0.00 0.00 46 1014.2
20260504215805 23 173 9.7 17.7 0.00 0.00 0.00 46 1014.1
20260504215305 23 201 9.7 17.7 0.00 0.00 0.00 47 1014.1
20260504214805 23 157 9.7 17.7 0.00 0.00 0.00 46 1014.1
20260504214306 23 200 9.7 19.3 0.00 0.00 0.00 47 1014.2
20260504213805 23 355 12.9 19.3 0.00 0.00 0.00 47 1014.1
20260504213303 23 199 11.3 19.3 0.00 0.00 0.00 46 1014.2
20260504212804 23 186 9.7 19.3 0.00 0.00 0.00 46 1014.2
20260504212304 23 236 9.7 19.3 0.00 0.00 0.00 44 1014.2
20260504212024 23 191 9.7 19.3 0.00 0.00 0.00 45 1014.5
20260504211303 23 171 8.0 19.3 0.00 0.00 0.00 43 1014.4
20260504210802 24 182 9.7 19.3 0.00 0.00 0.00 43 1014.2
20260504210303 23 303 9.7 16.1 0.00 0.00 0.00 42 1014.2
20260504205803 23 193 9.7 17.7 0.00 0.00 0.00 41 1014.2
20260504205304 23 118 9.7 19.3 0.00 0.00 0.00 43 1014.3
20260504204803 23 157 9.7 19.3 0.00 0.00 0.00 41 1014.5
20260504204522 23 180 9.7 20.9 0.00 0.00 0.00 41 1014.6
20260504204022 23 161 9.7 20.9 0.00 0.00 0.00 40 1014.6
20260504203304 23 172 9.7 20.9 0.00 0.00 0.00 42 1014.7
20260504202803 23 195 9.7 19.3 0.00 0.00 0.00 42 1014.8
20260504202304 24 160 8.0 20.9 0.00 0.00 0.00 42 1014.7
20260504201804 24 191 9.7 20.9 0.00 0.00 0.00 41 1014.9
20260504201303 24 184 9.7 17.7 0.00 0.00 0.00 40 1015.1
20260504200803 24 206 9.7 16.1 0.00 0.00 0.00 41 1015.1
20260504200304 24 166 9.7 19.3 0.00 0.00 0.00 42 1015.2
20260504195803 24 146 9.7 19.3 0.00 0.00 0.00 41 1015.3
20260504195304 23 159 9.7 19.3 0.00 0.00 0.00 41 1015.4
20260504194804 24 178 11.3 20.9 0.00 0.00 0.00 39 1015.5
20260504194453 24 182 9.7 20.9 0.00 0.00 0.00 40 1015.5
20260504193303 24 168 9.7 19.3 0.00 0.00 0.00 39 1015.6
20260504192803 23 54 11.3 20.9 0.00 0.00 0.00 41 1015.7
20260504192304 23 197 11.3 20.9 0.00 0.00 0.00 41 1015.8
20260504192020 24 193 8.0 20.9 0.00 0.00 0.00 42 1015.8
20260504191304 24 215 6.4 19.3 0.00 0.00 0.00 41 1015.7
20260504190803 24 185 9.7 19.3 0.00 0.00 0.00 41 1015.7
20260504190303 24 169 9.7 19.3 0.00 0.00 0.00 42 1015.9
20260504190024 24 164 8.0 19.3 0.00 0.00 0.00 43 1016.0
20260504185720 24 211 6.4 17.7 0.00 0.00 0.00 42 1016.0
20260504184302 24 66 9.7 20.9 0.00 0.00 0.00 44 1016.1
20260504183758 24 175 11.3 20.9 0.00 0.00 0.00 42 1016.2
20260504183258 24 185 8.0 20.9 0.00 0.00 0.00 43 1016.3
20260504182759 25 227 6.4 14.5 0.00 0.00 0.00 42 1016.3
20260504182259 24 229 8.0 20.9 0.00 0.00 0.00 42 1016.4
20260504181759 24 284 8.0 20.9 0.00 0.00 0.00 43 1016.3
20260504181259 24 168 8.0 16.1 0.00 0.00 0.00 44 1016.3
20260504180759 24 204 8.0 16.1 0.00 0.00 0.00 44 1016.3
20260504180259 24 297 6.4 16.1 0.00 0.00 0.00 43 1016.3
20260504175759 23 209 8.0 20.9 0.00 0.00 0.00 43 1016.4
20260504175300 23 192 8.0 20.9 0.00 0.00 0.00 43 1016.4
20260504174759 23 199 6.4 16.1 0.00 0.00 0.00 44 1016.4
20260504174259 23 194 9.7 22.5 0.00 0.00 0.00 45 1016.6
20260504173800 23 161 9.7 22.5 0.00 0.00 0.00 46 1016.5
20260504173300 23 231 11.3 19.3 0.00 0.00 0.00 44 1016.5
20260504172759 23 166 12.9 20.9 0.00 0.00 0.00 45 1016.4
20260504172257 23 155 9.7 20.9 0.00 0.00 0.00 46 1016.4
20260504171757 23 262 8.0 20.9 0.00 0.00 0.00 45 1016.3
20260504171257 23 202 8.0 20.9 0.00 0.00 0.00 45 1016.4
20260504170757 24 191 6.4 20.9 0.00 0.00 0.00 45 1016.5
20260504170257 23 148 6.4 16.1 0.00 0.00 0.00 45 1016.4
20260504160255 23 147 6.4 16.1 0.00 0.00 0.00 47 1017.0